Regional Weather Roundup
Issued by NWS Goodland, KS

Home | Current Version | Previous Version | Graphics & Text | Print | Product List | Glossary On
Versions: 1 2 3 4 5 6 7 8 9 10 11 12 13 14 15 16 17 18 19 20 21 22 23 24 25 26 27 28 29 30 31 32 33 34 35 36 37 38 39 40 41 42 43 44 45 46 47 48 49 50
000
ASUS43 KGLD 210259
RWRGLD

GOODLAND FORECAST AREA HOURLY WEATHER ROUNDUP
NATIONAL WEATHER SERVICE GOODLAND KS
800 PM MST MON FEB 20 2017

...OFFICIAL OBSERVATIONS...

CITY           SKY/WX    TMP DP  RH WIND       PRES   REMARKS
GOODLAND KS    CLEAR     35  15  44 S6        30.03R
HILL CITY KS   CLEAR     38  28  67 W3        30.00S
IMPERIAL NEB   CLEAR     43  16  33 SW3       30.00R
MCCOOK NEB     CLEAR     45  24  43 SW6       29.99R
AKRON CO       CLEAR     43  14  31 S8        30.02S
BURLINGTON CO  CLEAR     40  12  32 SW5       30.05R
LIMON CO       CLEAR     23  10  57 N5        30.07S
$$

...UNOFFICIAL OBSERVATIONS...

CITY           SKY/WX    TMP DP  RH WIND       PRES   REMARKS
LENORA KS        N/A     51  32  48 CALM        N/A
NORTON KS      CLEAR     39  21  48 CALM      29.98S
SHARON SPRINGS   N/A     40  13  33 CALM        N/A
TRENTON NEB      N/A     47  32  56 CALM        N/A
KIT CARSON CO    N/A     35  14  42 CALM        N/A
YUMA CO        FAIR      36  18  48 S9        30.01S
$$




USA.gov is the U.S. government's official web portal to all federal, state and local government web resources and services.